Change the Weather History Date:

Friday, September 6, 2013

  Actual Average (KCLE) Record (KCLE)
Temperature  
Mean Temperature 60 °F 68 °F  
Max Temperature 75 °F 77 °F 98 °F (1954)
Min Temperature 46 °F 59 °F 40 °F (1976)
Degree Days  
Heating Degree Days 4 1  
Month to date heating degree days 6  
Since 1 July heating degree days 18  
Cooling Degree Days 0 4  
Month to date cooling degree days 29  
Year to date cooling degree days 744  
Growing Degree Days 10 (Base 50)    
Moisture  
Dew Point 47 °F    
Average Humidity 68    
Maximum Humidity 93    
Minimum Humidity 30    
Precipitation  
Precipitation 0.00 in 0.12 in 2.30 in (1990)
Month to date precipitation 0.72  
Year to date precipitation 26.26  
Snow  
Snow 0.00 in 0.00 in - ()
Month to date snowfall 0.0  
Since 1 July snowfall 0.0  
Since 1 September snowfall 0.0  
Snow Depth -    
Sea Level Pressure  
Sea Level Pressure 30.23 in    
Wind  
Wind Speed 1 mph (ENE)    
Max Wind Speed 7 mph    
Max Gust Speed -    
Visibility 10 miles    
Events      
T = Trace of Precipitation, MM = Missing Value Source: NWS Daily Summary

Daily Weather History Graph

Daily Weather History Graph

Search for Another Location

Airport or City:

Trip Planner

Search our weather history database for the weather conditions in past years. The results will help you decide how hot, cold, wet, or windy it might be!

Date:

Astronomy

Sep. 06, 2013 Rise Set
Actual Time 7:00 AM EDT 7:52 PM EDT
Civil Twilight 6:32 AM EDT 8:20 PM EDT
Nautical Twilight 5:58 AM EDT 8:54 PM EDT
Astronomical Twilight 5:24 AM EDT 9:28 PM EDT
Moon 8:12 AM EDT (9/6) 8:14 PM EDT (9/6)
Length of Visible Light 13h 48m
Length of Day
12h 52m
New Moon, 1% of the Moon is Illuminated
Sep 6
New Moon
Sep 12
First Quarter
Sep 19
Full
Sep 26
Last Quarter
Oct 4
New

Hourly Weather History & Observations

Time (EDT) Temp. Dew Point Humidity Pressure Visibility Wind Dir Wind Speed Gust Speed Precip Events Conditions
12:53 AM 48.9 °F 45.0 °F 86% 30.26 in 10.0 mi Calm Calm - N/A   Clear
1:53 AM 48.9 °F 46.0 °F 90% 30.26 in 10.0 mi Calm Calm - N/A   Clear
2:53 AM 48.0 °F 44.1 °F 86% 30.27 in 10.0 mi Calm Calm - N/A   Clear
3:53 AM 48.0 °F 45.0 °F 89% 30.27 in 10.0 mi Calm Calm - N/A   Clear
4:53 AM 46.9 °F 44.1 °F 90% 30.28 in 9.0 mi Calm Calm - N/A   Clear
5:53 AM 46.9 °F 44.1 °F 90% 30.27 in 9.0 mi Calm Calm - N/A   Clear
6:53 AM 46.0 °F 43.0 °F 89% 30.27 in 6.0 mi Calm Calm - N/A   Clear
7:53 AM 48.0 °F 46.0 °F 93% 30.30 in 8.0 mi Calm Calm - N/A   Clear
8:53 AM 57.0 °F 51.1 °F 81% 30.30 in 10.0 mi Calm Calm - N/A   Clear
9:53 AM 62.1 °F 50.0 °F 65% 30.30 in 10.0 mi SSE 4.6 mph - N/A   Clear
10:53 AM 64.9 °F 48.0 °F 54% 30.29 in 10.0 mi Calm Calm - N/A   Clear
11:53 AM 68.0 °F 46.0 °F 45% 30.27 in 10.0 mi Calm Calm - N/A   Clear
12:53 PM 71.1 °F 41.0 °F 34% 30.26 in 10.0 mi East 3.5 mph - N/A   Clear
1:53 PM 71.1 °F 39.0 °F 31% 30.24 in 10.0 mi Calm Calm - N/A   Clear
2:53 PM 73.9 °F 41.0 °F 30% 30.22 in 10.0 mi Calm Calm - N/A   Clear
3:53 PM 73.9 °F 42.1 °F 32% 30.19 in 10.0 mi Calm Calm - N/A   Clear
4:53 PM 75.0 °F 50.0 °F 41% 30.18 in 10.0 mi Variable 4.6 mph - N/A   Clear
5:53 PM 73.0 °F 51.1 °F 46% 30.17 in 10.0 mi Variable 6.9 mph - N/A   Clear
6:53 PM 71.1 °F 53.1 °F 53% 30.16 in 10.0 mi NNE 3.5 mph - N/A   Clear
7:53 PM 64.0 °F 55.0 °F 73% 30.16 in 10.0 mi ENE 4.6 mph - N/A   Clear
8:53 PM 60.1 °F 53.1 °F 78% 30.16 in 10.0 mi NE 3.5 mph - N/A   Clear
9:53 PM 57.0 °F 52.0 °F 83% 30.15 in 10.0 mi Calm Calm - N/A   Clear
10:53 PM 55.0 °F 50.0 °F 83% 30.13 in 10.0 mi Calm Calm - N/A   Clear
11:53 PM 54.0 °F 50.0 °F 86% 30.13 in 10.0 mi Calm Calm - N/A   Clear